[[{"header":{"parameterUnit":"m.s-1","parameterCategory":1,"la1":30.2991,"la2":30.254,"lo1":-89.0895,"lo2":-89.0444,"dy":0.0017,"dx":0.0017,"nx":28,"ny":28,"refTime":"2025-03-29T21:00:00:Z","depth":0,"parameterNumber":2,"parameterNumberName":"U-component_of_WINDS"},"data":[0,0,0,0,0,0,0,0,0,0,0,0,0,0,0,0,0,0,0,0,0,0,0,0,0,0,0,0,0,0,0,0,0,0,0,0,0,0,0,0,0,0,0,0,0,0,0,0,0,0,0,0,0,0,0,0,0,0,-4.9652,-4.9654,0,-4.9833,-4.9835,-4.9837,-4.988,-4.9879,-4.9878,-4.9877,-5.0063,-5.0069,-5.0075,0,0,0,0,0,0,0,0,0,0,0,0,0,-4.935,-4.9355,-4.9652,-4.9654,-4.9657,-4.9832,-4.9835,-4.9837,-4.9881,-4.9879,-4.9878,-4.9876,-5.0061,-5.0068,-5.0076,0,0,0,0,0,0,0,0,0,0,0,0,0,-4.9501,-4.9357,-4.9652,-4.97,-4.9706,-4.9832,-4.9835,-4.9838,-4.9881,-4.9879,-4.9877,-4.9876,-5.0059,-5.0068,-5.0077,-5.0168,0,0,-5.0104,-5.0108,0,0,0,0,0,0,0,0,-4.9492,-4.9512,-4.969,-4.9696,-4.9704,-4.9832,-4.9796,-4.9949,-4.9881,-4.9814,-4.9877,-4.9875,-4.9988,-5.0003,-5.004,-5.0177,-5.0185,-5.0105,-5.0111,-5.0115,-5.0117,0,0,0,0,0,0,0,-4.9481,-4.9504,-4.9724,-4.9693,-4.9701,-4.9713,-4.9733,-4.9825,-4.9909,-4.982,-4.9824,-4.9844,-4.9991,-5.0032,-5.0045,-5.0188,-5.0105,-5.0113,-5.0119,-5.0122,-5.0412,-5.0414,0,0,0,0,0,0,-4.9462,-4.9495,-4.9718,-4.9729,-4.9591,-4.972,-4.9742,-4.9793,-4.9908,-4.9924,-4.9846,-4.9846,-5.0017,-5.0034,-5.0052,-5.0168,-5.0115,-5.0123,-5.0128,-5.041,-5.0413,-5.0415,0,0,0,0,0,0,-4.9456,-4.9482,-4.9711,-4.9613,-4.9643,-4.9727,-4.9784,-4.9797,-4.9838,-4.9927,-4.9943,-4.9871,-5.0016,-5.0039,-5.014,-5.0175,-5.0127,-5.0135,-5.0407,-5.0411,-5.0414,-5.0399,0,0,0,0,0,0,-4.9447,-4.9479,-4.9513,-4.9614,-4.9648,-4.9794,-4.9786,-4.9802,-4.9853,-4.9855,-4.9956,-4.9971,-5.0017,-5.0126,-5.0149,-5.0186,-5.0143,-5.0404,-5.0409,-5.0413,-5.0397,-5.0402,-5.0406,0,0,0,0,0,-4.9436,-4.9502,-4.9515,-4.9542,-4.9693,-4.9796,-4.9816,-4.9867,-4.9855,-4.9892,-4.995,-4.9967,-5.0168,-5.0136,-5.0162,-5.0203,-5.0402,-5.0408,-5.0412,-5.0395,-5.0401,-5.0406,0,0,0,0,0,0,-4.9404,-4.9516,-4.9531,-4.9632,-4.9704,-4.9803,-4.9849,-4.9871,-4.9948,-4.9946,-5.0007,-5.003,-5.0127,-5.0176,-5.0138,-5.0299,-5.0285,-5.0296,-5.0263,-5.0269,-5.0274,-5.0259,-5.015,0,0,0,0,0,-4.9408,-4.9481,-4.9576,-4.9656,-4.9691,-4.9764,-4.9811,-4.9845,-4.9922,-4.9952,-5.0018,-5.0093,-5.0173,-5.0225,-5.0303,-5.0406,-5.0429,-5.0447,-5.0452,-5.0455,-5.0462,-5.0522,-5.0531,-5.0432,-5.0432,-5.0431,0,0,-4.9418,-4.9489,-4.9531,-4.9651,-4.9711,-4.9786,-4.9789,-4.9869,-4.9926,-4.9965,-5.0063,-5.0115,-5.0203,-5.0305,-5.0353,-5.0349,-5.0496,-5.0461,-5.0463,-5.0469,-5.0528,-5.0537,-5.0546,-5.0435,-5.0434,-5.0434,0,0,-4.9475,-4.9536,-4.9609,-4.967,-4.976,-4.9809,-4.9827,-4.9924,-4.9959,-5.0059,-5.0091,-5.0161,-5.0297,-5.0359,-5.0408,-5.0493,-5.0512,-5.0517,-5.0539,-5.0597,-5.0604,-5.0612,-5.0642,-5.0652,-5.0525,-5.0525,-5.0525,0,-4.9476,-4.9589,-4.9644,-4.9723,-4.9775,-4.9815,-4.9891,-4.9947,-5.0059,-5.0095,-5.0089,-5.0263,-5.0325,-5.0442,-5.0463,-5.0502,-5.0525,-5.0504,-5.0599,-5.0607,-5.0614,-5.0643,-5.0655,-5.0525,-5.0525,-5.0525,-5.0525,0,-4.9586,-4.9665,-4.9714,-4.9821,-4.988,-4.9956,-5.0024,-5.0077,-5.0107,-5.0157,-5.026,-5.0337,-5.0433,-5.0464,-5.0493,-5.0587,-5.0581,-5.0586,-5.0573,-5.0623,-5.0651,-5.0663,-5.0525,-5.0525,-5.0525,-5.0525,0,0,-4.9624,-4.9763,-4.9779,-4.9829,-4.9934,-4.9997,-5.0077,-5.017,-5.0215,-5.0293,-5.0361,-5.0478,-5.0484,-5.054,-5.0578,-5.0628,-5.0691,-5.0628,-5.0631,-5.0636,-5.08,-5.0794,-5.0806,-5.0706,-5.0708,-5.071,-5.0792,0,-4.9692,-4.9834,-4.9888,-5.0005,-5.0079,-5.0121,-5.0191,-5.0264,-5.0314,-5.0385,-5.0442,-5.0523,-5.0525,-5.0559,-5.0611,-5.0672,-5.0725,-5.0668,-5.0771,-5.0774,-5.0745,-5.0821,-5.0814,-5.0887,-5.0804,-5.0806,-5.0807,0,-4.979,-4.9868,-4.9992,-5.009,-5.0124,-5.0185,-5.0276,-5.0344,-5.0429,-5.0463,-5.0527,-5.0562,-5.065,-5.0633,-5.0755,-5.0715,-5.0762,-5.0799,-5.0803,-5.0813,-5.0791,-5.0831,-5.0912,-5.0922,-5.0825,-5.0824,-5.0823,0,-4.9804,-4.9941,-5.0033,-5.0075,-5.0191,-5.0234,-5.0285,-5.0368,-5.0422,-5.0503,-5.0538,-5.0629,-5.0678,-5.0748,-5.0807,-5.079,-5.0924,-5.0912,-5.0955,-5.0953,-5.0978,-5.0975,-5.1066,-5.1011,-5.1011,-5.1011,-5.1011,0,-4.9873,-4.9947,-5.0041,-5.0097,-5.0183,-5.0245,-5.0329,-5.0383,-5.0457,-5.0526,-5.0569,-5.0633,-5.0709,-5.0784,-5.0831,-5.0925,-5.0948,-5.0978,-5.0989,-5.0973,-5.0969,-5.1002,-5.0998,-5.1014,-5.1013,-5.1013,-5.1012,0,-4.9901,-4.9967,-5.007,-5.0173,-5.0201,-5.0259,-5.0348,-5.0406,-5.046,-5.0547,-5.0571,-5.0655,-5.0746,-5.0813,-5.0931,-5.0963,-5.1063,-5.1076,-5.1034,-5.1039,-5.1077,-5.1072,-5.1191,-5.1209,-5.1143,-5.1144,-5.1144,0,-4.994,-4.9998,-5.0108,-5.0157,-5.0207,-5.0286,-5.0341,-5.0407,-5.0463,-5.0566,-5.0612,-5.0705,-5.0783,-5.0926,-5.0999,-5.109,-5.1104,-5.114,-5.1118,-5.11,-5.1104,-5.1099,-5.1105,-5.1142,-5.1142,-5.1142,-5.1143,0,-5.0002,-5.0032,-5.011,-5.02,-5.0264,-5.0339,-5.0413,-5.0452,-5.0531,-5.0593,-5.0685,-5.0746,-5.0867,-5.096,-5.1058,-5.1113,-5.1141,-5.115,-5.1164,-5.1146,-5.1119,-5.1134,-5.104,-5.1146,-5.1145,-5.1145,-5.1145,-5.1145,-5.0036,-5.009,-5.0176,-5.0262,-5.0325,-5.0395,-5.0455,-5.0517,-5.0595,-5.0697,-5.0732,-5.0828,-5.0916,-5.1051,-5.1107,-5.1185,-5.1184,-5.1205,-5.121,-5.1214,-5.1212,-5.1109,-5.1203,-5.1203,-5.1203,-5.1203,-5.1203,0,-5.0099,-5.0157,-5.0236,-5.0339,-5.0408,-5.043,-5.0515,-5.057,-5.0654,-5.0732,-5.0809,-5.0917,-5.1008,-5.109,-5.1185,-5.1232,-5.1247,-5.1254,-5.125,-5.1263,-5.1207,-5.1185,-5.124,-5.124,-5.124,-5.124,-5.124,-5.124,-5.014,-5.0233,-5.0274,-5.04,-5.0458,-5.0552,-5.0599,-5.0664,-5.0727,-5.0846,-5.0922,-5.0974,-5.1055,-5.1157,-5.1242,-5.1264,-5.1297,-5.13,-5.1325,-5.1271,-5.1266,-5.1262,-5.1241,-5.1307,-5.1307,-5.1374,-5.1375,-5.1375]},{"header":{"parameterUnit":"m.s-1","parameterCategory":1,"la1":30.2991,"la2":30.254,"lo1":-89.0895,"lo2":-89.0444,"dy":0.0017,"dx":0.0017,"nx":28,"ny":28,"refTime":"2025-03-29T21:00:00:Z","depth":0,"parameterNumber":3,"parameterNumberName":"V-component_of_WINDS"},"data":[0,0,0,0,0,0,0,0,0,0,0,0,0,0,0,0,0,0,0,0,0,0,0,0,0,0,0,0,0,0,0,0,0,0,0,0,0,0,0,0,0,0,0,0,0,0,0,0,0,0,0,0,0,0,0,0,0,0,3.7854,3.7856,0,3.8029,3.8031,3.8033,3.8098,3.8098,3.8097,3.8097,3.8276,3.8281,3.8286,0,0,0,0,0,0,0,0,0,0,0,0,0,3.7579,3.7583,3.7854,3.7856,3.7858,3.8029,3.8031,3.8033,3.8099,3.8098,3.8097,3.8097,3.8274,3.828,3.8287,0,0,0,0,0,0,0,0,0,0,0,0,0,3.772,3.7585,3.7853,3.7911,3.7918,3.8028,3.8031,3.8034,3.8099,3.8098,3.8097,3.8096,3.8272,3.828,3.8287,3.8353,0,0,3.8312,3.8315,0,0,0,0,0,0,0,0,3.7712,3.773,3.79,3.7907,3.7915,3.8041,3.8,3.8141,3.8099,3.803,3.8097,3.8096,3.8198,3.8212,3.8247,3.8361,3.8369,3.8312,3.8317,3.832,3.8323,0,0,0,0,0,0,0,3.7702,3.7723,3.7923,3.7903,3.7912,3.7929,3.7949,3.8027,3.8117,3.8036,3.8041,3.8061,3.8202,3.8239,3.8252,3.8371,3.8312,3.8319,3.8324,3.8327,3.8553,3.8555,0,0,0,0,0,0,3.7682,3.7714,3.7917,3.7928,3.781,3.7935,3.7956,3.8001,3.8116,3.8133,3.8062,3.8063,3.8226,3.8242,3.8258,3.8345,3.832,3.8328,3.8332,3.8552,3.8554,3.8555,0,0,0,0,0,0,3.7676,3.77,3.791,3.7823,3.7851,3.7941,3.7991,3.8005,3.8042,3.8135,3.8152,3.8083,3.8226,3.8247,3.833,3.8352,3.8331,3.8339,3.8551,3.8553,3.8554,3.8518,0,0,0,0,0,0,3.7668,3.7697,3.7722,3.7823,3.7855,3.7978,3.7992,3.8009,3.8056,3.806,3.8159,3.8175,3.8227,3.8318,3.8338,3.8363,3.8345,3.8549,3.8551,3.8554,3.8517,3.8518,3.8519,0,0,0,0,0,3.7658,3.7703,3.7723,3.7747,3.7888,3.7979,3.7998,3.8057,3.8057,3.8084,3.8145,3.8172,3.8347,3.8326,3.8349,3.8376,3.8548,3.8551,3.8554,3.8517,3.8518,3.8519,0,0,0,0,0,0,3.7601,3.7717,3.774,3.7819,3.7889,3.799,3.8025,3.8055,3.8126,3.8126,3.8197,3.8219,3.8297,3.8345,3.832,3.8448,3.8449,3.8457,3.8414,3.8415,3.8416,3.8403,3.8351,0,0,0,0,0,3.7598,3.7662,3.776,3.7821,3.7855,3.7934,3.7975,3.8016,3.809,3.812,3.8186,3.8258,3.833,3.8375,3.8446,3.8525,3.8549,3.8556,3.8557,3.8557,3.8562,3.8612,3.8617,3.8564,3.8564,3.8564,0,0,3.7591,3.7663,3.7699,3.7811,3.787,3.7936,3.7958,3.8025,3.8076,3.813,3.8213,3.8265,3.835,3.8432,3.8472,3.8475,3.8583,3.856,3.856,3.8566,3.8615,3.862,3.8625,3.8566,3.8566,3.8566,0,0,3.7614,3.7674,3.7732,3.7792,3.7881,3.7934,3.7948,3.8046,3.8083,3.8168,3.8211,3.8273,3.8393,3.8454,3.85,3.8551,3.858,3.8572,3.8576,3.8623,3.8627,3.8632,3.8652,3.8659,3.8578,3.8578,3.8578,0,3.7595,3.7695,3.7758,3.7826,3.7875,3.793,3.7991,3.8045,3.8153,3.8187,3.8189,3.8345,3.8406,3.8505,3.8518,3.8553,3.8573,3.8561,3.8622,3.8626,3.8631,3.8652,3.8659,3.8576,3.8576,3.8576,3.8577,0,3.7669,3.7738,3.7775,3.788,3.7934,3.7997,3.8072,3.8119,3.8156,3.8209,3.8297,3.8373,3.8462,3.8489,3.8523,3.8594,3.8594,3.8608,3.861,3.8634,3.8654,3.8663,3.8574,3.8575,3.8575,3.8575,0,0,3.7657,3.7799,3.7812,3.7862,3.7967,3.8022,3.809,3.8178,3.8219,3.8292,3.8353,3.8456,3.8472,3.8524,3.8567,3.8609,3.8649,3.8619,3.8622,3.8623,3.8735,3.8724,3.8732,3.8669,3.8671,3.8672,3.8728,0,3.7694,3.7818,3.7879,3.7977,3.8044,3.8099,3.8158,3.823,3.8283,3.8349,3.8408,3.8481,3.8494,3.8527,3.8571,3.8634,3.8672,3.8631,3.8727,3.873,3.8705,3.8742,3.873,3.8779,3.8736,3.8738,3.8739,0,3.7753,3.7829,3.7933,3.8035,3.8065,3.8117,3.8206,3.8267,3.8351,3.8388,3.8449,3.8492,3.8568,3.8566,3.8673,3.8644,3.8688,3.8725,3.8729,3.874,3.8736,3.8756,3.8796,3.8804,3.8752,3.8751,3.875,0,3.7737,3.7865,3.7945,3.7986,3.8105,3.8142,3.8193,3.8277,3.8327,3.8405,3.8439,3.8524,3.8571,3.8636,3.8702,3.8694,3.8804,3.8807,3.8838,3.8836,3.8858,3.8856,3.8907,3.8884,3.8884,3.8884,3.8884,0,3.7773,3.7835,3.794,3.7989,3.8062,3.8133,3.8204,3.8259,3.8334,3.8397,3.845,3.8507,3.8591,3.866,3.8712,3.8795,3.8815,3.8848,3.8861,3.8843,3.8839,3.8873,3.8872,3.8886,3.8886,3.8885,3.8885,0,3.7766,3.7838,3.793,3.8037,3.8066,3.8115,3.8207,3.8259,3.8316,3.8395,3.8418,3.8508,3.8592,3.8665,3.8776,3.8811,3.8898,3.8913,3.8869,3.8876,3.8904,3.8901,3.8979,3.8994,3.896,3.896,3.896,0,3.7783,3.7833,3.7947,3.7994,3.8045,3.8118,3.8171,3.8245,3.8298,3.8401,3.8441,3.8529,3.8604,3.8737,3.8813,3.8899,3.8918,3.894,3.8931,3.8913,3.8921,3.8917,3.8924,3.8939,3.8939,3.8939,3.8939,0,3.7809,3.7844,3.7918,3.8006,3.8069,3.8141,3.8216,3.8251,3.8339,3.8397,3.8485,3.8543,3.8659,3.8747,3.8842,3.8897,3.8934,3.8942,3.8954,3.8937,3.8911,3.8928,3.8871,3.894,3.894,3.894,3.894,3.894,3.7816,3.7865,3.7954,3.8036,3.8101,3.817,3.8225,3.8291,3.8365,3.8466,3.8505,3.8596,3.8683,3.8816,3.8871,3.8944,3.895,3.8967,3.8971,3.8975,3.8973,3.8899,3.8962,3.8962,3.8962,3.8962,3.8962,0,3.7846,3.7907,3.7982,3.8086,3.8152,3.8183,3.8268,3.8321,3.84,3.8479,3.8553,3.8656,3.8744,3.8828,3.8921,3.8963,3.8983,3.8985,3.8983,3.8996,3.8962,3.8943,3.8968,3.8968,3.8968,3.8968,3.8968,3.8968,3.7869,3.7954,3.8,3.8119,3.818,3.8269,3.8316,3.8382,3.8446,3.8559,3.8632,3.8687,3.877,3.887,3.8952,3.8975,3.9007,3.9005,3.9033,3.8999,3.8998,3.8996,3.8979,3.9011,3.9011,3.9061,3.9062,3.9062]}]]